CW7595 Weather Reports


Display with metric or nautical units.
time (UTC)temp
F
wind
direction
speed
MPH
gust
MPH
rain 1hr
in
rain 24hr
in
rain mn
in
humidity
%
barometer
mb
20260504044546 38 329 4.0 12.0 0.00 0.43 0.00 76 1000.6
20260504043045 38 329 2.0 10.0 0.00 0.43 0.00 76 1000.5
20260504041541 38 274 0.0 12.0 0.00 0.43 0.00 77 1000.6
20260504040059 39 294 4.0 11.0 0.00 0.43 0.43 78 1000.5
20260504034536 39 336 4.0 10.0 0.00 0.43 0.43 80 1000.5
20260504033035 40 265 4.0 13.0 0.00 0.43 0.43 83 1000.3
20260504031533 40 321 1.0 6.0 0.00 0.43 0.43 85 1000.3
20260504030030 40 293 0.0 3.0 0.00 0.43 0.43 85 1000.4
20260504024530 40 265 2.0 7.0 0.00 0.43 0.43 85 1000.2
20260504023030 40 315 3.0 8.0 0.00 0.43 0.43 85 1000.2
20260504021528 41 271 1.0 5.0 0.00 0.43 0.43 84 1000.2
20260504020029 41 319 1.0 7.0 0.00 0.43 0.43 84 1000.2
20260504014527 41 317 1.0 8.0 0.00 0.43 0.43 84 1000.4
20260504013027 41 319 1.0 7.0 0.00 0.43 0.43 84 1000.4
20260504011526 41 292 1.0 16.0 0.00 0.43 0.43 84 1000.4
20260504010024 41 5 4.0 9.0 0.01 0.43 0.43 85 1000.4
20260504004533 41 338 3.0 6.0 0.01 0.43 0.43 85 1000.3
20260504003021 41 335 0.0 5.0 0.01 0.43 0.43 85 1000.2
20260504001519 41 311 0.0 8.0 0.01 0.43 0.43 84 1000.1
20260504000020 41 315 1.0 7.0 0.00 0.43 0.42 84 1000.1
20260503234517 41 355 1.0 8.0 0.01 0.43 0.42 84 1000.1
20260503233020 41 304 1.0 11.0 0.01 0.43 0.42 84 1000.1
20260503231514 41 325 2.0 10.0 0.01 0.43 0.42 84 1000.0
20260503230013 41 307 2.0 6.0 0.02 0.43 0.42 85 1000.1
20260503224511 41 291 2.0 8.0 0.01 0.42 0.41 85 1000.2
20260503223011 41 348 2.0 7.0 0.02 0.42 0.41 84 1000.2
20260503221510 41 360 2.0 9.0 0.02 0.42 0.41 84 1000.1
20260503220007 41 13 0.0 9.0 0.01 0.41 0.40 83 1000.2
20260503214504 42 334 2.0 6.0 0.01 0.41 0.40 83 1000.4
20260503213002 42 309 3.0 8.0 0.01 0.40 0.39 83 1000.6
20260503211600 42 335 2.0 8.0 0.01 0.40 0.39 83 1000.7
20260503210059 42 288 2.0 8.0 0.01 0.40 0.39 84 1000.8
20260503204558 42 11 3.0 6.0 0.01 0.40 0.39 84 1000.8
20260503203056 42 340 2.0 9.0 0.00 0.39 0.38 83 1000.9
20260503201553 42 329 5.0 8.0 0.01 0.39 0.38 83 1001.2
20260503200056 42 343 3.0 10.0 0.02 0.39 0.38 83 1001.4
20260503194547 42 327 3.0 8.0 0.03 0.39 0.38 84 1001.7
20260503193049 42 360 1.0 7.0 0.04 0.39 0.38 84 1001.9
20260503191543 42 351 2.0 7.0 0.04 0.38 0.37 84 1002.1
20260503190043 42 300 2.0 8.0 0.04 0.37 0.36 84 1002.4
20260503184540 42 28 0.0 0.0 0.03 0.36 0.35 84 1002.6
20260503183053 42 294 1.0 7.0 0.02 0.34 0.33 83 1002.7
20260503181549 42 337 0.0 4.0 0.02 0.34 0.33 83 1002.8
20260503180038 42 336 1.0 6.0 0.02 0.33 0.32 83 1002.5
20260503174537 41 344 0.0 4.0 0.03 0.33 0.32 83 1002.4
20260503173034 41 326 3.0 7.0 0.03 0.32 0.31 83 1002.6
20260503171533 41 30 2.0 5.0 0.04 0.32 0.31 83 1002.7
20260503081534 40 181 0.0 0.0 0.00 0.03 0.02 85 1007.6